• în România
  • Lista ţărilor
  • Pe 7 zile
  • Temperatura apei
  • Hartă satelitară
  • Meteo pe hartă
  • Widget-uri
  • user-avatar
    Intrare

    Meteo pe oră la Canillo

    Astăzi, 23 August, Miercuri

    Timp Temperatura Precipitaţii Vânt Presiune Umiditate
    00:00 +13°C° 0 mm 0 m/s 622 mmHg 73%
    01:00 +14°C° 0,3 mm 1 m/s 622 mmHg 75%
    02:00 +13°C° 0,3 mm 1 m/s 622 mmHg 77%
    03:00 +13°C° 0,3 mm 1 m/s 622 mmHg 79%
    04:00 +13°C° 0,2 mm 1 m/s 622 mmHg 78%
    05:00 +12°C° 0,2 mm 0 m/s 622 mmHg 77%
    06:00 +13°C° 0 mm 0 m/s 623 mmHg 76%
    07:00 +16°C° 0 mm 1 m/s 624 mmHg 68%
    08:00 +19°C° 0 mm 1 m/s 625 mmHg 60%
    09:00 +20°C° 0 mm 2 m/s 625 mmHg 52%
    10:00 +21°C° 0,1 mm 2 m/s 626 mmHg 49%
    11:00 +23°C° 0,1 mm 2 m/s 626 mmHg 46%
    12:00 +24°C° 0,1 mm 2 m/s 626 mmHg 43%
    13:00 +24°C° 0,2 mm 2 m/s 626 mmHg 44%
    14:00 +24°C° 0,2 mm 2 m/s 626 mmHg 45%
    15:00 +24°C° 0,2 mm 2 m/s 625 mmHg 46%
    16:00 +23°C° 0,5 mm 2 m/s 625 mmHg 53%
    17:00 +21°C° 0,5 mm 1 m/s 624 mmHg 60%
    18:00 +20°C° 0,5 mm 1 m/s 623 mmHg 68%
    19:00 +19°C° 0,5 mm 1 m/s 623 mmHg 72%
    20:00 +16°C° 0,5 mm 1 m/s 623 mmHg 76%
    21:00 +15°C° 0,5 mm 1 m/s 623 mmHg 81%
    22:00 +15°C° 0,6 mm 1 m/s 623 mmHg 81%
    23:00 +15°C° 0,6 mm 1 m/s 623 mmHg 81%

    Mâine, 24 August, Joi

    Timp Temperatura Precipitaţii Vânt Presiune Umiditate
    00:00 +15°C° 0,6 mm 1 m/s 623 mmHg 81%
    01:00 +14°C° 0,2 mm 1 m/s 622 mmHg 82%
    02:00 +13°C° 0,2 mm 1 m/s 622 mmHg 83%
    03:00 +13°C° 0,2 mm 1 m/s 621 mmHg 84%
    04:00 +13°C° 0,1 mm 1 m/s 621 mmHg 83%
    05:00 +13°C° 0,1 mm 1 m/s 622 mmHg 81%
    06:00 +13°C° 0,1 mm 1 m/s 622 mmHg 79%
    07:00 +15°C° 0 mm 1 m/s 623 mmHg 69%
    08:00 +19°C° 0 mm 1 m/s 624 mmHg 59%
    09:00 +20°C° 0 mm 2 m/s 625 mmHg 48%
    10:00 +23°C° 0 mm 2 m/s 625 mmHg 44%
    11:00 +24°C° 0 mm 3 m/s 626 mmHg 40%
    12:00 +26°C° 0 mm 3 m/s 626 mmHg 35%
    13:00 +25°C° 0 mm 3 m/s 626 mmHg 36%
    14:00 +25°C° 0 mm 3 m/s 626 mmHg 36%
    15:00 +25°C° 0 mm 3 m/s 625 mmHg 36%
    16:00 +24°C° 0 mm 3 m/s 625 mmHg 41%
    17:00 +21°C° 0 mm 3 m/s 624 mmHg 46%
    18:00 +20°C° 0 mm 2 m/s 623 mmHg 50%
    19:00 +18°C° 0 mm 2 m/s 623 mmHg 53%
    20:00 +16°C° 0 mm 2 m/s 623 mmHg 55%
    21:00 +14°C° 0 mm 2 m/s 622 mmHg 57%
    22:00 +14°C° 0 mm 2 m/s 622 mmHg 56%
    23:00 +14°C° 0 mm 2 m/s 622 mmHg 55%

    Poimâine, 25 August, Vineri

    Timp Temperatura Precipitaţii Vânt Presiune Umiditate
    00:00 +14°C° 0 mm 2 m/s 622 mmHg 54%
    01:00 +13°C° 0 mm 2 m/s 622 mmHg 54%
    02:00 +13°C° 0 mm 2 m/s 621 mmHg 55%
    03:00 +13°C° 0 mm 2 m/s 621 mmHg 55%
    04:00 +13°C° 0,1 mm 2 m/s 621 mmHg 56%
    05:00 +13°C° 0,1 mm 2 m/s 622 mmHg 57%
    06:00 +13°C° 0,1 mm 2 m/s 622 mmHg 59%
    07:00 +16°C° 0,1 mm 2 m/s 623 mmHg 51%
    08:00 +19°C° 0,1 mm 2 m/s 624 mmHg 44%
    09:00 +22°C° 0,1 mm 3 m/s 625 mmHg 37%
    10:00 +24°C° 0 mm 3 m/s 625 mmHg 34%
    11:00 +25°C° 0 mm 3 m/s 626 mmHg 32%
    12:00 +26°C° 0 mm 4 m/s 626 mmHg 29%
    13:00 +26°C° 0 mm 4 m/s 625 mmHg 30%
    14:00 +26°C° 0 mm 4 m/s 625 mmHg 31%
    15:00 +26°C° 0 mm 4 m/s 625 mmHg 31%
    16:00 +24°C° 0 mm 3 m/s 624 mmHg 38%
    17:00 +21°C° 0 mm 3 m/s 623 mmHg 45%
    18:00 +19°C° 0 mm 2 m/s 622 mmHg 51%
    19:00 +18°C° 0,1 mm 2 m/s 622 mmHg 54%
    20:00 +16°C° 0,1 mm 2 m/s 622 mmHg 57%
    21:00 +15°C° 0,1 mm 2 m/s 622 mmHg 60%
    22:00 +15°C° 0,3 mm 2 m/s 621 mmHg 61%
    23:00 +14°C° 0,3 mm 2 m/s 621 mmHg 62%

    26 August, Sâmbătă

    Timp Temperatura Precipitaţii Vânt Presiune Umiditate
    00:00 +14°C° 0,3 mm 2 m/s 621 mmHg 62%
    01:00 +13°C° 0,1 mm 2 m/s 621 mmHg 61%
    02:00 +13°C° 0,1 mm 2 m/s 621 mmHg 60%
    03:00 +13°C° 0,1 mm 1 m/s 621 mmHg 58%
    04:00 +13°C° 0,1 mm 1 m/s 621 mmHg 57%
    05:00 +13°C° 0,1 mm 1 m/s 621 mmHg 56%
    06:00 +14°C° 0,1 mm 1 m/s 621 mmHg 55%
    07:00 +16°C° 0 mm 2 m/s 622 mmHg 51%
    08:00 +18°C° 0 mm 2 m/s 623 mmHg 47%
    09:00 +20°C° 0 mm 3 m/s 624 mmHg 42%
    10:00 +22°C° 0 mm 3 m/s 624 mmHg 39%
    11:00 +24°C° 0 mm 3 m/s 624 mmHg 35%
    12:00 +25°C° 0 mm 4 m/s 625 mmHg 31%
    13:00 +25°C° 0 mm 4 m/s 624 mmHg 32%
    14:00 +25°C° 0 mm 4 m/s 624 mmHg 32%
    15:00 +25°C° 0 mm 4 m/s 624 mmHg 33%
    16:00 +24°C° 0 mm 3 m/s 623 mmHg 39%
    17:00 +21°C° 0 mm 3 m/s 622 mmHg 46%
    18:00 +19°C° 0 mm 2 m/s 622 mmHg 52%
    19:00 +18°C° 0 mm 2 m/s 621 mmHg 55%
    20:00 +16°C° 0 mm 2 m/s 621 mmHg 58%
    21:00 +15°C° 0 mm 2 m/s 621 mmHg 61%
    22:00 +15°C° 0 mm 2 m/s 621 mmHg 62%
    23:00 +15°C° 0 mm 1 m/s 621 mmHg 62%

    27 August, Duminică

    Timp Temperatura Precipitaţii Vânt Presiune Umiditate
    00:00 +14°C° 0 mm 1 m/s 621 mmHg 63%
    01:00 +14°C° 0 mm 1 m/s 621 mmHg 61%
    02:00 +14°C° 0 mm 1 m/s 620 mmHg 59%
    03:00 +14°C° 0 mm 1 m/s 620 mmHg 58%
    04:00 +14°C° 0 mm 1 m/s 620 mmHg 58%
    05:00 +14°C° 0 mm 1 m/s 620 mmHg 58%
    06:00 +14°C° 0 mm 1 m/s 621 mmHg 58%
    07:00 +17°C° 0 mm 2 m/s 622 mmHg 51%
    08:00 +20°C° 0 mm 2 m/s 623 mmHg 44%
    09:00 +24°C° 0 mm 2 m/s 625 mmHg 36%
    10:00 +24°C° 0,1 mm 2 m/s 625 mmHg 37%
    11:00 +24°C° 0,1 mm 3 m/s 625 mmHg 39%
    12:00 +24°C° 0,1 mm 3 m/s 625 mmHg 40%
    13:00 +22°C° 0,2 mm 3 m/s 624 mmHg 46%
    14:00 +21°C° 0,2 mm 3 m/s 624 mmHg 52%
    15:00 +20°C° 0,2 mm 2 m/s 623 mmHg 57%
    16:00 +19°C° 0,1 mm 2 m/s 623 mmHg 60%
    17:00 +18°C° 0,1 mm 2 m/s 622 mmHg 62%
    18:00 +19°C° 0,1 mm 1 m/s 622 mmHg 64%
    19:00 +16°C° 0,3 mm 1 m/s 622 mmHg 64%
    20:00 +15°C° 0,3 mm 2 m/s 622 mmHg 64%
    21:00 +14°C° 0,3 mm 2 m/s 622 mmHg 64%
    22:00 +14°C° 0,1 mm 2 m/s 622 mmHg 64%
    23:00 +14°C° 0,1 mm 1 m/s 622 mmHg 63%

    28 August, Luni

    Timp Temperatura Precipitaţii Vânt Presiune Umiditate
    00:00 +14°C° 0,1 mm 1 m/s 622 mmHg 63%
    01:00 +14°C° 0 mm 1 m/s 622 mmHg 62%
    02:00 +14°C° 0 mm 1 m/s 621 mmHg 62%
    03:00 +15°C° 0 mm 1 m/s 621 mmHg 61%
    04:00 +14°C° 0 mm 1 m/s 621 mmHg 62%
    05:00 +14°C° 0 mm 1 m/s 622 mmHg 62%
    06:00 +14°C° 0 mm 1 m/s 622 mmHg 63%
    07:00 +18°C° 0 mm 1 m/s 623 mmHg 55%
    08:00 +21°C° 0 mm 1 m/s 624 mmHg 48%
    09:00 +24°C° 0 mm 2 m/s 625 mmHg 40%
    10:00 +24°C° 0 mm 2 m/s 625 mmHg 39%
    11:00 +25°C° 0 mm 2 m/s 626 mmHg 37%
    12:00 +26°C° 0 mm 3 m/s 626 mmHg 35%
    13:00 +26°C° 0 mm 3 m/s 625 mmHg 37%
    14:00 +25°C° 0 mm 3 m/s 625 mmHg 39%
    15:00 +25°C° 0 mm 3 m/s 625 mmHg 40%
    16:00 +24°C° 0,1 mm 2 m/s 624 mmHg 46%
    17:00 +21°C° 0,1 mm 2 m/s 623 mmHg 53%
    18:00 +21°C° 0,1 mm 1 m/s 623 mmHg 59%
    19:00 +19°C° 0 mm 1 m/s 622 mmHg 60%
    20:00 +18°C° 0 mm 1 m/s 622 mmHg 61%
    21:00 +16°C° 0 mm 1 m/s 622 mmHg 62%
    22:00 +16°C° 0 mm 1 m/s 622 mmHg 62%
    23:00 +15°C° 0 mm 1 m/s 621 mmHg 62%
    Arată mai mult